Home > Weather > Küsnacht > Past weeks

Flag for Switzerland Past Weather in Küsnacht, Zurich, Switzerland — Yesterday and Last 2 Weeks

Now
76 °F

Mild.


Feels Like: 78 °F
Forecast: 54 / 77 °F
Wind: 6 mph from Northwest

Location: Zuerich-Fluntern

Current Time: Jul 27, 2016 at 5:35:20 PM

Latest Report: Jul 27, 2016 at 4:00 PM


Visibility: N/A

Pressure: 29.99 "Hg

Humidity: 55%

Dew Point: 58 °F

Location of KüsnachtLocation

Past Weather in Küsnacht — Graph

°F

Küsnacht Temperature Yesterday

Maximum temperature yesterday: 79 °F (at 4:00 PM)
Minimum temperature yesterday: 61 °F (at 6:00 AM)
Average temperature yesterday: 70 °F

High & Low Weather Summary for the Past Weeks

 TemperatureHumidityPressure
High88 °F (Jul 20, 5:00 PM)100% (Jul 19, 4:00 PM)30.37 "Hg (Jul 19, 4:00 PM)
Low47 °F (Jul 16, 5:00 AM)32% (Jul 20, 7:00 PM)29.88 "Hg (Jul 20, 7:00 PM)
Average66 °F76%30.10 "Hg
* Reported Jul 12 4:00 PM — Jul 27 4:00 PM, Küsnacht, Weather by CustomWeather, © 2016

Note: Actual official high and low records may vary slightly from our data, if they occured in-between our weather recording intervals... More about our weather records

Advertising

Küsnacht Weather History for the Previous 24 Hours

Scroll right to see more
 ConditionsComfort  
Time TempWeatherWind HumidityBarometerVisibility
4:00 PM
Wed, Jul 27
76 °FMild.6 mph55%29.99 "HgN/A
3:00 PM74 °FMild.5 mph66%30.01 "HgN/A
2:00 PM74 °FPartly sunny.3 mph67%30.02 "HgN/A
1:00 PM69 °FMild.5 mph82%30.05 "HgN/A
12:00 PM68 °FMild.3 mph80%30.07 "HgN/A
11:00 AM69 °FMild.3 mph76%30.06 "HgN/A
10:00 AM68 °FMild.3 mph82%30.07 "HgN/A
9:00 AM65 °FMild.2 mph88%30.08 "HgN/A
8:00 AM65 °FOvercast.3 mph88%30.08 "HgN/A
7:00 AM64 °FMild.1 mph91%30.07 "HgN/A
6:00 AM63 °FMild.1 mph92%30.08 "HgN/A
5:00 AM62 °FCool.5 mph92%30.07 "HgN/A
4:00 AM62 °FCool.2 mph90%30.08 "HgN/A
3:00 AM62 °FCool.3 mph92%30.08 "HgN/A
2:00 AM64 °FMild.2 mph86%30.08 "HgN/A
1:00 AM65 °FMild.1 mph81%30.09 "HgN/A
12:00 AM65 °FMild.3 mph75%30.09 "HgN/A
10:00 PM
Tue, Jul 26
72 °FMild.1 mph70%30.06 "HgN/A
9:00 PM73 °FMild.3 mph70%30.03 "HgN/A
8:00 PM76 °FScattered clouds.5 mph63%30.02 "HgN/A
7:00 PM78 °FWarm.5 mph53%30.01 "HgN/A
6:00 PM78 °FWarm.1 mph55%30.01 "HgN/A
5:00 PM78 °FWarm.2 mph53%30.01 "HgN/A
Weather by CustomWeather, © 2016

See weather overviewHow to use our weather pages